Location: Shenandoah County Park
(38.9356°N, 78.4524°W)
Time: 13:01:41
(UTC-05:00)

Vanguard 2 Rocket - Pass Details

Date: 04 December 2023
Orbit: 555 x 3309 km, 32.9° (Epoch: 02 March)

Event Time Altitude Azimuth Distance (km) Brightness Sun altitude
Rises 11:11:10 0° 180° (S) 5,475 12.1 27.6°
Reaches altitude 10° 11:16:46 10° 160° (SSE) 5,009 12.4 27.8°
Maximum altitude 11:24:37 16° 128° (SE) 5,106 11.6 28.1°
Drops below altitude 10° 11:33:49 10° 98° (E) 6,079 11.4 28.4°
Sets 11:41:52 0° 81° (E) 7,286 11.5 28.6°
